User: anonymous   Login
Location: Mason Neck State Park
(38.6428°N, 77.1981°W)
Time: 21:35:00
(UTC-05:00)
Language:

Cosmos 1400 Rocket - Orbit

View from above orbital plane
View from above orbital plane
View from above satellite
View from above satellite

Ground track
Ground track

The orbit data is extracted from the following two-line orbital elements,

1 13403U 82079B   15029.57478845  .00003679  00000-0  25693-3 0  7746
2 13403 081.1706 184.3631 0035109 260.8849 098.8400 15.04619059765846
Epoch (UTC): 29 January 2015 13:47:41
Eccentricity: 0.0035109
inclination: 81.1706°
perigee height: 528 km
apogee height: 577 km
right ascension of ascending node: 184.3631°
argument of perigee: 260.8849°
revolutions per day: 15.04619059
mean anomaly at epoch: 98.8400°
orbit number at epoch: 76584

The dashed part of the orbit path shows where the satellite is in the earth's shadow,  

DLR